星链-31905 (STARLINK-31905 )

导读 | 星芒AI

STARLINK-31905 是 SpaceX Starlink 卫星互联网项目中的一颗低轨道卫星,属于第二代 Starlink 任务(v1.5 或 v2)的一部分。该卫星于2023年发射,旨在为全球用户提供高速、低延迟的宽带互联网服务。它运行在约550公里高度的近地轨道,配备先进通信设备,支持Ka/Ku波段传输,并具备星间激光通信能力,以提升网络效率和覆盖范围。作为 Starlink 网络的重要节点,STARLINK-31905 有助于扩展服务区域,提高连接稳定性,特别是在偏远和网络基础设施薄弱的地区。

基本信息
目录编号:
59896
目录名称:
STARLINK-31905
国际标识:
2024-100M
轨道中心:
EARTH
卫星名称:
星链-31905
卫星全名:
星链-31905 (STARLINK-31905 )
卫星状态:
在轨 (已飞行524 天)
发射日期:
2024-05-28 UTC
国别 :
美国 (US)
星等 :
--
轨道信息
数据来源 国际轨道数据 AOE轨道数据
星历时间 2025-11-02T19:59:55+0800
16小时前
查看轨道信息
2025-11-01T08:00:00+0800
2天前
查看轨道信息
半长轴 6861.197km 6861.129km
偏心率 0.0001577 0.0000913
轨道倾角 43.002° 43.001°
近地点辐角 279.956° 289.908°
升交点赤经 120.341° 128.816°
平近点角 80.112° 91.983°
近地点 481.979km 482.367km
远地点 484.145km 483.621km
周期 94.267分钟 94.266分钟
每日圈数 15.275765 15.275991
详细信息
固有亮度:
5
最大亮度:
1.5
卫星平台:
Starlink v2.0 mini
覆盖范围:
全球
运营商:
太空探索技术公司
运营商所在国:
美国
制造商(研发单位):
太空探索技术公司
制造商所在国:
美国
使用方式:
暂无
卫星简介
星链(Starlink)计划是由太空探索技术公司(SpaceX)提出的一个巨型低轨卫星互联网星座项目,计划在2019年至2024年间在太空搭建由约1.2万颗卫星组成的“星链”网络,其中1584颗将部署在地球上空550千米处的近地轨道,并从2020年开始工作。该卫星仍在工作。
2D轨道图
3D轨道图
轨道高度分析图
轨道倾角分析图
轨道综合分析图
查看轨道综合分析图